STARLINK-2036 (47652 NORAD) Tracking and Keplerian Element Data

This shows tracking and keplerian element data for the satellite.

Feedback or suggestion? Click here.




ElementValue
Catalog47652
NameSTARLINK-2036
Epoch Orbit183
Epoch Day56.91667824
Epoch Year2021
RAAN53.6521
Inclination53.0493
Eccentricity0.0001152
Argument of Perigee68.4636
Mean Anonmoly29.6928
Mean Motion15.7970972
Decay Rate-0.01069333
L11 47652U 21012AJ 21056.91667824 -.01069333 00000-0 -63426-2 0 9997
L22 47652 53.0493 53.6521 0001152 68.4636 29.6928 15.79709720 1839

Live tracking and technical data element details for STARLINK-2036 (NORAD 47652). STARLINK-2036 can be tracked NOW for your location showing map with azimuth and elevation plus other details from your city location.

Track the satellite on the map from your city or location and see movement details for azimuth, elevation, latitude, longitude, range, height, and movement on the map or in text.







IsCatalogInMostPopularTable: catalog: 47652, numindb: 1
Update: records affected: 1



GetName: 47652 STARLINK-2036

Hit Count: updated at: Fri, 26 Feb 2021 09:07:03 GMT